Regional Weather Roundup
Issued by NWS

Home | Current Version | Previous Version | Graphics & Text | Print | Product List | Glossary On
Versions: 1 2 3 4 5 6 7 8 9 10 11 12 13 14 15 16 17 18 19 20 21 22 23 24 25 26 27 28 29 30 31 32 33 34 35 36 37 38 39 40 41 42 43 44 45 46 47 48 49 50
000
ASUS43 KBIS 060110
RWRND

NORTH DAKOTA REGIONAL WEATHER ROUNDUP
NATIONAL WEATHER SERVICE BISMARCK ND
700 PM CST MON DEC 05 2016

NOTE: "FAIR" INDICATES FEW OR NO CLOUDS BELOW 12,000 FEET WITH NO
SIGNIFICANT WEATHER AND/OR OBSTRUCTIONS TO VISIBILITY.


NDZ001>003-009>011-017-060200-
NORTHWEST NORTH DAKOTA

CITY           SKY/WX    TMP DP  RH WIND       PRES   REMARKS
WILLISTON      LGT SNOW  11   6  81 NW29G41   29.85R VSB 3/4 WCI -11
MINOT          FRZ RAIN  23  20  88 W20       29.63S FOG     WCI   8
MINOT AFB      LGT SNOW  23  19  86 NW22      29.62S VSB 3/4 WCI   8
$$

NDZ018>021-031>035-040>046-060200-
SOUTHWEST NORTH DAKOTA

CITY           SKY/WX    TMP DP  RH WIND       PRES   REMARKS
BISMARCK       LGT SNOW  17  13  84 NW23G40   29.69R FOG     WCI  -1
DICKINSON      LGT SNOW   8   3  80 NW33G43   29.78R WCI -16
GARRISON         N/A     16  12  84 NW33G46   29.66S WCI  -5
HETTINGER ARPT MIX PCPN   8   3  80 NW32G41   29.80S WCI -16
$$

NDZ004>008-012>016-024-026-027-054-060200-
NORTHEAST NORTH DAKOTA

CITY           SKY/WX    TMP DP  RH WIND       PRES   REMARKS
GRAND FORKS    FLURRIES  31  27  85 NE16      29.56F WCI  20
GRND FRKS AFB  LGT SNOW  30  27  86 NE14      29.56F FOG     WCI  20
DEVILS LAKE    LGT SNOW  26  26 100 NE12      29.58S FOG     WCI  16
$$

NDZ022-023-025-028>030-036>039-047>053-060200-
SOUTHEAST NORTH DAKOTA

CITY           SKY/WX    TMP DP  RH WIND       PRES   REMARKS
FARGO          FLURRIES  34  30  85 NE8       29.47F
JAMESTOWN      LGT SNOW  27  25  92 N13       29.52F VSB 3/4 WCI  16
$$




USA.gov is the U.S. government's official web portal to all federal, state and local government web resources and services.